Weather in Calapan

Philippines     13°24′19″N   121°10′33″E
temp.,
°C
wind,
m/s
gust,
m/s
humid.,
%
clouds,
%
prec.,
mm/h
press.,
hPa
HPBL,
m
13 may, thu
thu1323:00+29e44755 0.3 1010508
02:00+28se34775 0.4 1009383
05:00+28se45791 0.3 1009344
08:00+28e56762 0.7 1010734
11:00+28e56765 0.0 1009506
14:00+29se457131 0.0 1007242
17:00+29e567246 0.0 1007346
20:00+29ne797519 0.1 1008589
14 may, fri
fri1423:00+28ene887889 0.3 1009666
02:00+28ene678114 1.6 1008594
05:00+28ene678110 1.4 1008682
08:00+28e56795 1.8 1010633
11:00+28ese55775 0.0 1009436
14:00+29se45715 0.0 1007248
17:00+30e68747 0.0 1007559
20:00+29ne797814 0.9 1009586
15 may, sat
sat1523:00+29ene88795 0.6 1010703
02:00+28e567738 1.3 1008653
05:00+28e55801 0.1 1008590
08:00+28e56795 0.3 1010691
11:00+29e55775 0.0 1009483
14:00+29ese45725 0.0 1007249
17:00+30e57735 0.0 1007445
20:00+29ne68788 1.9 1009475
16 may, sun
sun1623:00+29ene67795 0.4 1009524
02:00+28ene568266 3.6 1008400
05:00+28ene558012 2.8 1008396
08:00+29e457550 3.3 1010598
11:00+29e457336 0.0 1009419
14:00+29ese557138 0.0 1007353
17:00+30se567367 0.0 1007315
20:00+29ene677890 0.3 1009541
17 may, mon
mon1723:00+29ne67785 1.1 1009509
02:00+29ene667981 1.3 1007609
05:00+28ene668183 0.5 1008614
08:00+28e668066 1.3 1009704
11:00+29e567680 0.0 1009476
14:00+29ese457243 0.0 1007236
17:00+30e6875100 0.0 1007513
20:00+29ene6877100 0.1 1008472